This is the latest recevied weather packets stored in our database for station/object N4TLC. If no packets are shown the sender has not sent any weather packets the latest 10 day(s).
| Time | Temp. | Humidity | Pressure | Rain* | Wind** | Luminosity | Snow |
|---|---|---|---|---|---|---|---|
| 1777734732 | 11.67° C | 50% | 1016.5 hPa | 0 mm | - | 104 W/m² | - |
| 1777734429 | 11.67° C | 50% | 1016.4 hPa | 0 mm | - | 112 W/m² | - |
| 1777734126 | 11.67° C | 49% | 1016.3 hPa | 0 mm | - | 132 W/m² | - |
| 1777733823 | 11.67° C | 50% | 1016.5 hPa | 0 mm | - | 118 W/m² | - |
| 1777733216 | 11.67° C | 50% | 1016.3 hPa | 0 mm | - | 112 W/m² | - |
| 1777732913 | 11.67° C | 49% | 1016.4 hPa | 0 mm | - | 140 W/m² | - |
| 1777732609 | 11.67° C | 51% | 1016.3 hPa | 0 mm | - | 149 W/m² | - |
| 1777732306 | 11.67° C | 51% | 1016.2 hPa | 0 mm | - | 133 W/m² | - |
| 1777732003 | 11.67° C | 52% | 1016.4 hPa | 0 mm | - | 99 W/m² | - |
| 1777731700 | 11.67° C | 54% | 1016.1 hPa | 0 mm | - | 121 W/m² | - |
| 1777731397 | 11.67° C | 54% | 1016.3 hPa | 0 mm | - | 115 W/m² | - |
| 1777731095 | 11.67° C | 54% | 1016.2 hPa | 0 mm | - | 135 W/m² | - |
| 1777730794 | 11.67° C | 55% | 1016.3 hPa | 0 mm | - | 128 W/m² | - |
| 1777730490 | 11.67° C | 55% | 1016.3 hPa | 0 mm | - | 120 W/m² | - |
| 1777730186 | 11.67° C | 57% | 1015.9 hPa | 0 mm | - | 102 W/m² | - |
| 1777729883 | 11.67° C | 57% | 1016.2 hPa | 0 mm | - | 84 W/m² | - |
| 1777729579 | 11.67° C | 59% | 1015.9 hPa | 0 mm | - | 99 W/m² | - |
| 1777729276 | 11.67° C | 59% | 1016.1 hPa | 0 mm | - | 78 W/m² | - |
| 1777728973 | 11.67° C | 59% | 1015.9 hPa | 0 mm | - | 82 W/m² | - |
| 1777728669 | 11.67° C | 60% | 1016 hPa | 0 mm | - | 60 W/m² | - |
| 1777728367 | 11.67° C | 59% | 1015.9 hPa | 0 mm | - | 58 W/m² | - |
| 1777728064 | 11.67° C | 60% | 1015.8 hPa | 0 mm | - | 56 W/m² | - |
| 1777727760 | 11.67° C | 60% | 1015.8 hPa | 0 mm | - | 57 W/m² | - |
| 1777727457 | 11.67° C | 60% | 1015.9 hPa | 0 mm | - | 51 W/m² | - |
| 1777727155 | 11.67° C | 61% | 1016.2 hPa | 0 mm | - | 37 W/m² | - |
* Rain latest hour (hover to see other rain measurements)
** Current wind speed in m/s (hover to see current wind gust speed)